Theta_e
363 365 364 363 363 362 363 367 368 370 372 368 366 363 362 363 367 371 371 366 368 369 366 366 368 372 356 354 354 353 349 347 342 345 347 356 366 366 361 364 359 362 354
362 365 364 366 364 362 359 365 369 370 372 372 370 367 363 362 368 368 362 362 361 361 363 368 364 357 371 370 358 368 359 364 349 357 357 354 363 367 367 367 357 357 358
361 360 363 365 364 362 365 366 367 369 370 368 370 369 367 364 365 367 367 364 361 362 364 366 365 368 371 363 368 361 357 360 359 354 353 356 356 356 359 367 367 366 360
356 356 361 364 365 364 367 368 368 371 370 370 372 371 369 366 364 362 364 367 366 361 363 365 366 367 369 372 369 372 368 363 359 353 353 353 354 364 358 353 353 356 355
358 358 360 365 367 368 366 368 368 370 370 372 372 370 369 365 359 363 364 365 367 365 365 365 366 363 352 358 360 368 371 363 354 352 351 350 350 350 355 356 353 357 361
360 359 362 366 367 367 366 367 369 369 370 371 370 369 368 359 342 338 354 360 364 366 366 368 370 359 355 343 342 342 353 366 368 356 352 351 361 359 358 356 358 355 352
363 363 364 367 367 368 367 367 368 369 370 371 370 370 369 370 336 333 338 359 361 363 366 368 365 355 357 369 347 340 341 338 342 361 361 361 362 366 368 366 361 360 359
362 366 365 368 367 369 369 368 369 369 369 370 370 371 371 369 337 329 334 359 359 362 365 368 368 366 365 366 369 367 367 366 363 357 362 363 367 370 369 368 368 366 365
363 365 366 367 368 370 368 368 370 369 369 370 372 372 372 370 332 328 335 356 356 362 364 365 365 366 350 337 363 361 362 362 346 334 336 338 339 337 345 357 356 356 353
364 364 367 369 369 369 370 371 371 371 369 363 367 371 359 372 336 326 335 356 357 354 363 367 341 354 337 330 362 363 360 363 364 364 367 357 340 349 333 353 361 357 358
362 365 369 369 370 372 373 373 372 369 366 369 369 371 372 367 368 325 322 360 355 353 352 351 355 331 327 325 327 363 360 363 359 363 364 365 368 369 372 370 365 367 359
366 366 368 370 366 365 372 372 373 371 370 371 368 367 363 372 341 326 320 326 346 357 354 348 352 324 319 321 327 331 327 332 357 357 357 358 361 364 366 367 376 373 368
367 367 368 369 368 369 369 370 365 370 360 361 358 356 356 359 364 327 318 320 324 348 357 343 327 320 316 321 318 323 323 355 358 357 357 359 362 365 373 373 372 369 364
365 367 367 367 366 369 364 364 360 358 358 355 356 354 354 355 356 361 352 338 325 336 341 352 346 335 322 337 349 338 354 362 361 361 362 364 365 366 367 366 360 354 351
363 361 364 361 362 363 363 361 360 363 352 358 354 354 351 353 355 345 349 363 359 349 351 358 357 356 358 360 363 364 364 365 364 364 363 364 364 363 361 360 352 350 351
357 358 357 358 359 358 358 356 314 322 313 314 314 335 356 321 312 313 312 312 317 318 351 357 357 359 361 360 360 357 362 357 363 365 363 359 356 354 353 352 350 349 349
348 360 357 352 358 358 359 357 355 335 314 310 312 313 314 313 310 311 308 306 313 323 361 361 359 360 361 359 358 361 360 362 365 364 361 358 356 354 347 348 349 348 348
337 323 354 358 358 356 358 358 357 355 353 354 321 322 310 305 309 307 308 314 355 343 358 359 360 363 363 361 362 361 363 364 367 364 359 356 356 352 348 344 346 348 350
328 328 332 345 366 353 359 358 354 353 351 349 353 324 315 302 300 301 303 353 356 359 360 360 361 361 362 364 364 365 365 362 361 361 359 356 354 352 347 348 351 330 332
335 324 328 339 345 348 353 347 347 346 345 344 347 349 341 328 345 345 339 348 354 357 358 358 358 361 364 365 364 368 362 358 358 355 355 355 355 354 349 348 349 346 342
336 338 329 337 336 334 340 346 348 348 343 345 346 346 324 349 354 353 356 356 356 357 360 360 366 363 366 368 364 363 360 358 356 355 353 353 353 350 350 347 345 343 341
324 324 330 338 341 342 336 339 342 340 342 342 345 344 314 355 356 354 354 356 360 361 363 368 364 363 361 360 358 357 355 354 353 352 350 349 350 348 346 344 343 341 340
321 324 327 330 330 325 335 336 340 340 339 342 343 345 347 345 347 344 344 340 348 350 351 353 352 354 354 355 354 353 350 349 344 348 347 345 344 343 343 341 340 339 338
313 315 317 318 317 325 322 326 329 320 325 328 325 328 329 331 328 328 326 326 324 323 324 322 329 322 323 323 328 334 317 311 317 339 345 344 342 336 339 338 337 334 333
303 302 303 305 307 309 309 306 310 311 312 309 309 309 309 308 308 308 308 308 308 307 304 305 306 310 306 303 303 305 295 288 300 296 325 339 339 339 338 336 334 332 334
297 297 296 297 297 298 298 297 297 297 297 298 297 298 298 298 298 298 298 298 298 297 296 296 296 296 297 296 294 290 286 287 295 288 313 332 334 336 334 333 332 331 334
Wind_Speed
22 20 20 18 19 17 14 14 12 11 9 10 9 10 10 11 10 9 10 6 10 10 8 6 8 7 8 6 6 6 6 6 7 8 7 6 3 6 7 7 9 9 10
22 21 21 20 19 18 18 15 15 13 12 10 11 10 11 11 11 11 12 10 10 9 10 9 9 9 9 8 8 7 7 5 7 8 8 9 9 9 9 9 8 9 10
22 23 21 20 20 20 19 17 16 15 14 14 13 12 12 12 12 12 12 12 11 11 11 11 11 10 9 9 8 8 8 8 9 10 10 8 8 8 8 9 9 10 9
24 24 21 22 21 20 18 17 16 15 15 14 14 13 13 13 13 13 13 12 11 12 11 11 11 11 10 10 10 9 9 9 10 10 10 10 9 7 6 8 9 7 8
22 22 22 21 20 19 19 18 17 16 15 14 14 14 14 13 12 14 13 13 12 12 11 12 13 12 11 10 10 10 9 10 10 10 9 9 9 8 8 9 11 11 8
21 22 19 19 20 20 19 19 18 17 16 16 15 15 15 13 15 15 14 12 12 12 12 12 12 9 10 11 11 12 11 10 10 11 11 11 10 10 9 10 11 12 12
18 19 19 19 20 20 19 19 19 18 17 16 16 16 16 16 13 15 17 13 12 12 12 11 12 13 13 14 16 17 16 15 16 13 14 13 13 12 11 11 12 11 12
20 18 20 19 20 19 19 19 18 17 17 16 16 16 15 14 14 14 14 15 14 14 12 13 14 13 12 10 10 11 12 13 13 12 14 14 12 11 11 11 11 11 10
20 21 21 20 20 19 20 20 17 16 16 16 15 16 16 16 16 15 14 15 15 15 14 15 15 14 13 12 14 15 15 14 14 14 16 16 14 11 10 8 9 10 10
22 22 19 18 19 20 19 18 16 15 16 15 16 15 16 16 13 16 16 13 14 13 14 15 16 17 12 12 14 14 15 13 13 13 11 9 12 8 11 10 10 9 7
18 17 17 18 18 17 16 15 16 16 15 15 15 14 15 16 15 18 20 14 13 12 13 12 13 21 22 20 16 15 14 9 11 11 11 11 6 8 7 8 10 8 7
16 17 17 17 16 15 16 15 15 14 14 13 13 12 13 14 15 15 18 21 15 14 13 11 11 11 18 20 16 14 10 10 12 12 12 11 9 7 8 10 8 5 6
15 15 15 16 16 14 16 15 14 14 14 14 13 14 13 13 14 17 19 20 21 14 13 8 6 4 7 5 10 9 10 9 10 10 10 8 8 10 9 5 5 5 4
15 15 15 16 15 14 14 14 14 14 14 13 13 13 13 12 11 12 13 12 17 14 15 14 12 9 6 5 3 8 9 10 10 9 9 9 9 8 7 5 4 4 4
14 14 15 15 15 15 14 14 14 14 11 14 12 13 12 12 12 13 11 12 12 14 12 11 12 12 12 11 10 8 10 9 10 9 10 10 8 8 8 4 4 5 9
10 12 14 14 15 15 14 9 10 9 11 10 7 1 5 9 12 8 10 13 9 11 11 11 12 12 11 10 6 7 10 11 11 9 6 7 7 7 6 6 5 7 8
5 13 12 13 14 14 13 13 12 4 7 11 11 10 6 5 12 11 11 10 8 8 8 10 10 10 5 6 9 9 8 7 8 7 7 8 8 6 5 7 8 7 10
11 14 3 5 9 13 12 12 11 11 11 9 9 9 6 11 9 9 5 2 6 4 10 12 12 8 10 11 9 8 10 8 7 7 8 8 8 6 5 5 7 11 11
8 9 9 8 2 3 4 9 6 7 6 5 8 4 9 9 7 10 11 6 9 10 11 12 12 11 10 6 7 7 7 7 8 7 8 7 8 7 7 9 11 10 6
3 5 5 7 6 5 6 8 8 7 7 8 4 2 11 7 7 7 7 7 9 12 13 13 10 7 6 8 9 7 6 6 7 7 8 8 8 9 8 9 10 11 9
4 4 4 5 6 5 7 3 8 6 4 4 7 5 15 10 6 7 8 7 8 10 12 10 5 6 8 6 4 7 4 5 7 7 7 7 9 9 9 9 10 10 10
5 3 3 2 5 4 4 6 5 8 7 2 1 5 4 2 1 6 9 6 8 8 8 7 6 5 3 2 4 5 5 5 7 6 6 6 7 8 9 7 9 10 8
11 11 7 4 8 6 4 5 4 7 11 6 5 9 5 2 2 8 8 11 11 9 7 7 8 6 6 5 3 3 6 5 5 4 6 7 8 8 7 7 8 7 9
11 9 8 9 11 11 13 13 13 14 14 14 14 13 13 13 12 12 11 11 11 11 12 12 11 14 14 14 13 12 10 11 10 9 9 6 7 6 8 8 7 5 7
11 10 10 12 11 11 12 12 12 11 11 11 12 12 12 11 11 10 11 10 10 10 11 11 10 13 14 17 17 18 17 17 11 10 9 8 8 10 8 7 6 8 13
11 12 10 11 12 12 12 11 11 12 12 11 11 10 9 9 9 9 9 9 9 10 11 10 12 17 16 14 16 17 12 14 12 8 6 9 8 8 7 7 10 9 14
Wind_Direction
201 197 197 196 197 204 203 202 215 212 222 210 227 207 215 212 211 206 239 230 185 207 257 215 202 255 278 274 228 227 254 253 263 272 287 305 292 227 261 267 275 268 260
200 198 197 194 195 197 205 204 198 211 211 213 216 213 214 215 209 206 214 223 222 217 216 229 224 227 216 256 278 287 280 288 276 277 284 287 275 265 245 239 253 270 285
199 200 196 196 195 197 197 203 202 201 207 212 212 215 212 213 215 210 214 222 230 213 218 222 227 226 233 254 239 255 241 224 233 246 264 270 279 285 281 248 240 253 255
196 203 199 198 198 199 196 196 202 200 201 208 211 212 214 214 216 219 212 219 223 225 225 225 227 230 232 230 237 245 253 265 273 272 269 267 266 267 258 265 264 260 299
196 200 199 197 200 197 195 194 196 201 200 206 209 211 213 218 218 215 222 214 216 229 234 226 229 238 238 235 245 237 244 241 253 259 265 274 282 294 319 322 301 278 276
194 198 196 193 196 197 196 194 195 199 201 202 208 210 213 221 215 204 208 222 221 221 227 231 244 239 229 228 234 250 260 273 279 276 278 280 291 290 285 300 310 304 296
204 195 195 189 194 197 196 193 195 198 198 204 205 211 214 218 219 202 200 219 223 223 230 233 237 240 218 230 220 228 236 236 233 256 267 268 280 284 290 294 288 290 292
201 197 194 192 195 194 193 195 195 195 201 203 206 209 216 218 208 201 197 217 226 236 238 229 233 248 259 262 255 248 234 234 225 231 237 251 257 260 255 261 290 289 281
200 202 195 196 192 194 197 195 194 197 200 206 208 210 214 222 200 197 185 220 230 233 234 236 243 248 246 219 242 254 259 263 269 253 249 249 242 248 259 286 284 285 285
203 200 194 195 194 199 197 193 191 196 204 207 211 213 216 223 201 198 192 226 232 232 228 232 230 241 238 216 234 250 257 259 264 272 277 256 247 246 230 233 250 256 279
204 195 192 198 197 199 196 195 193 197 205 208 211 211 216 214 220 194 192 217 235 230 237 241 233 209 220 225 214 241 251 267 271 274 269 261 245 267 228 220 212 243 253
195 192 192 194 196 192 196 195 197 196 203 202 211 214 216 219 216 194 194 209 224 241 250 248 243 224 207 215 217 230 234 248 260 261 263 268 269 260 267 264 246 238 256
186 189 191 188 192 196 189 192 193 195 206 211 206 219 226 214 217 202 194 205 222 237 246 251 65 103 168 208 232 235 214 235 248 255 261 261 256 261 266 254 250 254 243
188 188 188 186 188 202 184 192 201 199 202 210 214 215 221 227 225 209 204 207 222 216 239 257 266 295 292 282 257 203 225 242 249 249 252 255 262 255 243 258 223 214 229
189 191 188 187 187 195 195 195 201 210 204 206 213 212 221 220 223 221 211 193 210 211 219 227 232 232 240 242 239 240 248 241 242 241 250 257 264 262 250 218 196 224 240
197 194 191 189 181 193 193 166 52 120 121 114 93 62 95 51 37 65 114 112 97 165 195 228 228 232 235 233 230 230 251 247 252 254 245 256 244 235 220 210 206 225 238
328 206 191 208 175 195 188 184 184 155 169 168 164 162 184 50 61 47 44 78 76 132 232 224 233 241 233 259 249 245 232 229 240 240 233 238 244 229 200 207 214 225 232
350 17 305 231 178 195 185 188 181 179 196 203 228 222 160 123 139 108 123 103 237 218 263 252 249 227 232 231 215 216 247 240 207 218 234 238 230 213 200 210 228 224 233
8 11 358 331 135 95 119 158 152 159 176 167 141 185 154 101 117 128 147 227 252 254 239 232 239 243 242 253 252 235 238 251 253 242 234 225 220 215 214 226 238 254 279
6 11 342 336 360 265 157 183 213 225 248 272 240 207 144 127 189 210 206 206 227 242 258 259 257 267 273 215 232 240 219 226 239 240 236 233 229 230 227 243 251 261 222
264 200 198 326 312 305 347 184 203 194 230 231 216 184 162 135 188 229 215 197 221 239 246 263 242 238 234 230 222 235 233 235 228 239 250 245 241 245 233 242 251 235 248
327 3 279 172 230 316 354 264 87 9 279 210 21 37 78 54 327 286 280 221 193 218 248 228 265 260 226 178 200 237 245 242 241 228 236 256 255 256 262 262 260 263 252
25 338 356 12 20 341 254 298 140 167 260 285 285 154 188 193 64 32 27 21 33 20 10 10 4 333 359 313 295 276 250 259 349 286 224 230 258 267 264 281 275 269 266
22 3 22 24 20 15 18 26 27 22 18 25 22 26 21 23 28 20 16 19 32 29 24 18 28 25 9 3 358 3 37 1 329 316 325 274 266 275 265 260 269 250 248
39 28 31 35 28 29 34 30 29 24 26 27 26 26 22 20 24 23 20 23 30 32 34 31 19 27 27 22 12 8 352 338 324 324 290 282 277 277 268 258 237 240 241
53 53 44 47 43 41 37 34 37 33 30 29 34 35 32 34 35 33 33 38 43 46 49 39 33 37 36 30 17 4 344 340 346 318 311 289 279 272 260 250 248 245 254